Location: Landeleau
(48.2273°N, 3.7285°W)
Time: 05:22:01
(UTC+00:00)

Terra - Pass Details

Date: 30 March 2020
Orbit: 701 x 703 km, 98.2° (Epoch: 29 May)

Event Time Altitude Azimuth Distance (km) Brightness Sun altitude
Exits shadow 23:11:00 20° 301° (WNW) 1,596 4.0 -35.5°
Drops below altitude 10° 23:13:06 10° 323° (NW) 2,181 5.1 -35.6°
Sets 23:15:43 0° 336° (NNW) 3,105 6.2 -35.7°
